Wind_Speed
7 9 9 9 9 10 12 13 15 16 17 17 18 18 17 16 17 19 20 20 19 18 16 15 15 15 13 12 10 7 8 8 9 10 10 9 7 5 4 4 5 6 7
6 7 7 7 8 8 9 10 12 13 14 14 15 15 14 14 15 17 18 18 18 18 16 15 15 15 14 13 12 10 7 7 7 8 8 7 6 6 4 3 3 2 3
7 7 6 6 7 7 8 8 9 11 12 12 12 12 12 11 12 14 15 15 15 16 16 15 14 14 14 13 13 12 10 7 5 5 6 6 5 5 5 4 2 2 2
6 6 6 6 7 6 6 7 8 9 10 10 9 9 9 9 9 10 11 12 12 13 13 14 14 13 11 11 12 11 11 10 9 7 5 4 4 3 5 4 4 3 1
5 4 4 4 5 5 5 5 6 7 7 7 6 6 6 6 6 7 9 10 10 11 12 12 12 11 10 9 9 9 8 9 10 10 8 5 2 1 2 2 2 3 3
7 6 5 4 4 4 5 5 6 5 4 4 3 3 3 3 4 5 6 7 8 9 11 12 12 11 9 7 6 6 6 6 7 10 12 9 4 2 3 2 2 2 2
9 8 7 6 6 5 5 5 5 4 4 4 4 4 4 4 4 5 6 7 9 10 11 11 11 11 10 8 5 4 3 4 5 7 10 12 9 3 3 3 3 3 3
11 11 10 8 8 7 5 4 4 4 3 4 4 4 4 5 6 7 9 10 12 14 15 14 12 11 11 10 8 5 4 4 5 5 6 8 9 7 4 4 4 4 4
10 10 10 9 8 7 6 5 5 5 5 5 6 7 9 11 12 12 13 14 15 16 16 15 13 11 10 10 9 7 6 7 8 7 7 6 7 7 6 3 4 5 6
8 8 8 9 9 9 8 7 7 9 10 11 11 12 13 15 16 18 19 19 18 18 18 19 17 15 13 11 11 11 10 9 9 10 9 8 8 7 6 5 4 5 6
11 11 10 11 11 12 13 13 14 15 16 17 17 16 17 18 19 21 22 22 22 21 22 23 23 20 17 16 15 15 15 14 13 12 12 11 10 10 9 7 7 7 7
18 17 16 16 16 17 18 19 20 21 22 22 22 23 22 22 23 24 26 26 26 25 25 25 25 23 22 21 19 18 18 18 17 16 16 15 14 14 14 13 12 12 11
24 23 23 22 22 23 23 25 26 27 27 28 28 28 28 29 29 29 30 30 30 30 29 28 27 27 27 27 25 23 23 22 21 20 19 17 16 17 18 18 18 17 15
29 29 28 28 28 28 29 29 30 31 32 33 32 32 33 34 34 34 33 33 33 33 33 32 32 32 31 31 29 28 27 27 26 25 23 21 19 19 20 21 22 22 21
31 31 32 33 34 35 35 35 35 35 35 36 36 36 37 38 38 38 36 35 35 36 37 37 36 36 35 34 33 32 31 30 30 30 29 26 24 22 22 23 25 25 25
30 31 32 33 35 37 38 39 40 41 40 39 39 40 41 42 42 42 40 38 37 38 40 40 39 39 39 37 36 35 34 32 31 31 32 29 28 28 29 27 28 29 29
28 28 28 29 30 33 35 36 38 39 40 40 41 42 43 42 43 44 42 39 38 39 40 40 40 40 41 40 40 38 35 33 32 32 34 34 32 32 31 31 30 31 33
28 28 27 28 28 30 32 34 35 35 36 37 38 39 39 40 40 39 39 38 39 40 40 41 40 39 39 39 38 36 34 34 35 35 35 34 34 34 33 33 33 32 33
28 27 25 25 27 28 29 31 33 34 35 37 39 38 38 39 40 40 39 38 38 39 40 42 42 42 43 43 41 38 37 38 38 36 34 34 35 35 35 34 34 34 33
26 25 24 26 28 28 26 26 27 29 32 34 37 38 39 40 40 40 39 39 39 40 41 42 43 44 45 44 43 40 38 37 37 36 33 33 34 35 34 33 34 33 33
26 27 28 29 29 26 26 26 27 28 29 30 32 34 35 37 37 37 36 35 36 37 38 40 42 43 44 44 43 40 38 37 35 34 33 33 33 33 33 32 32 32 32
28 30 31 31 29 28 28 29 29 30 31 33 34 35 35 35 35 36 35 34 34 35 35 36 38 39 41 41 41 39 36 35 35 35 35 35 34 34 33 32 33 34 33
32 34 32 30 29 29 28 28 29 30 31 32 33 34 36 37 37 38 38 37 37 37 35 34 34 35 37 38 38 37 36 35 37 36 36 37 37 36 35 34 34 34 33
32 31 29 29 30 31 30 29 28 28 29 30 31 32 34 37 39 40 40 40 39 39 37 36 35 35 35 36 36 37 38 37 36 35 36 36 36 35 34 34 34 33 32
29 28 28 28 29 27 24 22 22 24 26 29 31 33 34 36 37 39 41 42 42 41 39 38 37 36 35 35 36 37 39 39 38 37 34 33 34 34 33 33 32 32 30
27 27 27 26 23 20 18 18 21 23 25 28 30 32 35 36 37 37 39 41 42 42 42 40 39 38 36 36 36 37 38 39 38 38 35 32 32 32 31 29 29 28 26
Wind_Direction
69 64 49 43 52 60 59 57 60 61 61 60 56 52 51 50 47 42 41 43 46 49 49 47 45 42 39 40 45 53 60 57 50 49 55 58 54 54 81 110 104 98 102
65 61 48 38 42 48 48 45 43 44 48 53 54 51 48 45 41 42 42 40 42 46 49 48 44 40 39 37 39 41 44 50 49 46 45 51 62 66 68 100 128 129 117
68 60 48 42 39 36 40 40 34 32 34 38 43 47 47 45 41 40 40 37 33 34 38 41 39 36 37 38 38 39 38 39 33 34 40 37 50 72 76 76 109 183 212
63 56 45 43 43 39 39 38 32 29 27 27 32 38 43 44 39 34 31 28 23 20 21 26 27 28 32 34 35 39 39 38 34 21 21 23 24 52 69 71 77 85 168
31 29 27 28 27 23 18 12 8 11 25 32 32 35 38 37 28 19 15 15 11 5 360 1 7 11 18 22 25 34 41 40 39 37 28 14 358 350 19 46 54 52 55
351 347 339 339 345 351 353 352 350 352 7 22 17 12 8 4 1 359 358 359 358 353 349 346 348 352 356 1 7 21 35 35 33 41 44 37 15 307 300 291 314 344 17
332 328 327 332 341 346 349 348 345 346 350 352 348 340 330 323 322 327 331 331 331 330 331 332 333 336 337 337 335 343 7 11 11 21 37 43 37 353 283 280 280 287 291
327 323 328 341 348 346 337 331 330 330 333 334 332 326 319 319 318 318 319 317 315 316 316 315 318 324 329 330 325 315 308 316 335 346 9 28 33 23 325 272 268 285 298
336 334 334 338 341 337 331 324 322 320 314 312 312 307 307 311 310 309 308 308 307 307 309 308 310 315 321 323 322 316 303 297 302 307 319 339 359 12 8 321 271 269 280
326 327 332 333 334 330 323 316 312 311 306 302 301 296 295 298 300 301 301 301 299 299 301 302 304 306 306 303 303 304 304 299 295 292 291 298 311 323 340 342 303 280 275
301 297 298 302 305 304 303 298 296 296 295 294 294 293 291 290 292 295 296 296 296 296 296 297 298 300 299 295 291 291 294 295 294 287 280 276 279 285 293 297 297 291 288
287 279 275 278 285 287 288 287 286 287 287 287 289 291 290 289 290 292 293 292 290 289 290 291 291 289 290 290 286 282 284 286 286 283 277 269 266 267 270 273 275 280 284
290 283 278 275 276 278 279 280 282 283 284 284 285 287 287 286 286 288 289 288 286 285 285 286 284 282 282 283 281 275 274 277 280 280 279 276 271 267 264 263 264 265 270
288 287 285 282 280 278 278 277 276 277 278 278 280 281 282 282 281 282 282 282 280 279 279 279 276 275 276 277 277 274 270 270 274 277 278 276 272 268 263 260 260 259 260
283 283 283 282 281 279 278 276 275 275 276 277 278 278 277 278 279 279 277 275 276 276 276 274 272 271 269 270 271 272 272 271 272 275 278 277 273 271 270 266 262 259 259
285 284 283 281 280 280 279 278 276 275 275 276 276 276 276 277 277 274 271 270 272 274 274 273 272 270 267 267 268 269 272 275 276 277 277 277 278 279 276 275 269 261 258
291 288 284 283 282 283 283 282 281 281 281 281 280 279 278 278 278 276 271 271 273 273 275 276 276 275 272 271 270 271 270 273 277 278 278 279 280 282 280 277 276 268 260
297 295 292 287 282 281 281 281 281 282 283 282 282 280 278 277 279 279 279 277 274 271 271 273 275 275 273 273 274 273 272 274 276 277 277 277 279 279 280 278 275 272 263
297 296 295 292 285 281 283 284 283 283 283 282 281 279 278 279 281 281 279 277 275 273 272 272 271 271 274 275 276 275 275 275 274 275 275 275 277 277 277 275 272 269 264
298 297 300 305 299 292 290 291 291 290 290 289 287 285 284 282 282 281 279 276 274 274 273 273 272 271 273 273 272 271 273 275 273 272 273 272 272 273 273 272 268 265 263
299 302 307 311 309 301 295 297 296 295 293 292 290 287 285 283 283 283 282 281 279 278 277 276 274 272 270 270 269 269 270 272 273 270 267 267 268 270 270 269 263 261 262
300 301 306 308 308 306 302 301 301 299 297 294 291 288 286 285 284 283 281 281 280 280 280 279 276 273 271 269 267 267 269 270 270 267 265 266 268 269 268 265 262 260 262
302 305 309 311 313 311 309 308 308 307 305 302 299 293 288 285 283 282 280 279 278 278 277 277 276 274 271 269 268 269 273 273 269 269 269 269 269 269 266 263 263 261 261
301 305 310 312 311 312 313 314 316 317 316 313 309 303 294 286 281 278 278 277 276 274 273 272 272 272 272 271 270 271 273 273 273 272 270 269 270 269 267 266 264 259 259
300 304 305 303 304 307 312 319 326 328 329 327 324 318 309 300 292 285 279 276 275 274 275 274 272 272 272 273 273 272 272 272 272 273 268 265 267 269 269 266 261 258 259
295 296 295 296 300 306 311 317 322 325 327 328 327 325 319 311 302 295 287 281 276 274 274 274 273 274 273 271 271 272 273 273 272 270 268 264 265 268 267 261 254 254 255
Height
5919 5919 5920 5919 5918 5917 5916 5915 5914 5913 5912 5911 5911 5911 5910 5910 5908 5908 5906 5906 5905 5904 5903 5903 5902 5901 5900 5899 5899 5898 5897 5896 5895 5894 5893 5892 5892 5892 5892 5891 5892 5892 5891
5919 5919 5920 5920 5919 5918 5917 5916 5915 5914 5913 5912 5912 5911 5911 5910 5909 5908 5907 5907 5906 5905 5904 5903 5903 5902 5901 5900 5899 5899 5898 5897 5896 5895 5895 5894 5893 5893 5893 5892 5893 5893 5893
5918 5918 5919 5919 5919 5918 5917 5916 5915 5914 5913 5913 5912 5911 5910 5910 5909 5908 5907 5907 5906 5905 5905 5904 5903 5902 5901 5900 5899 5898 5898 5897 5896 5895 5895 5895 5894 5894 5894 5893 5893 5893 5894
5918 5918 5918 5918 5918 5917 5916 5915 5914 5913 5912 5912 5912 5911 5910 5910 5909 5908 5907 5907 5906 5905 5905 5904 5904 5903 5902 5901 5900 5899 5897 5897 5896 5895 5894 5894 5894 5894 5894 5894 5893 5893 5893
5919 5918 5917 5916 5916 5915 5915 5914 5913 5912 5911 5911 5911 5910 5910 5909 5908 5908 5907 5907 5906 5905 5904 5904 5903 5902 5902 5901 5900 5899 5897 5896 5895 5895 5894 5893 5893 5893 5893 5893 5894 5894 5893
5918 5918 5917 5915 5914 5914 5913 5913 5912 5912 5911 5910 5910 5909 5908 5907 5907 5906 5906 5905 5905 5905 5904 5903 5902 5901 5900 5900 5899 5898 5897 5896 5895 5894 5893 5892 5891 5891 5891 5892 5892 5893 5893
5917 5917 5916 5915 5914 5913 5912 5912 5911 5911 5910 5910 5909 5908 5908 5906 5905 5905 5904 5904 5903 5903 5902 5902 5901 5900 5899 5898 5897 5897 5896 5895 5894 5893 5892 5891 5890 5890 5889 5890 5890 5891 5892
5918 5917 5916 5915 5914 5913 5912 5911 5910 5909 5909 5908 5908 5907 5907 5906 5905 5904 5903 5902 5902 5901 5900 5899 5899 5898 5897 5896 5895 5895 5894 5893 5892 5891 5891 5890 5889 5888 5888 5888 5889 5890 5890
5917 5916 5915 5914 5913 5912 5912 5911 5910 5909 5908 5908 5907 5907 5906 5905 5904 5903 5902 5901 5900 5899 5898 5897 5897 5896 5895 5895 5894 5893 5893 5892 5891 5891 5890 5889 5888 5887 5886 5886 5887 5887 5888
5917 5916 5914 5913 5912 5911 5911 5910 5909 5908 5908 5907 5906 5905 5904 5904 5903 5902 5901 5899 5898 5897 5896 5896 5895 5895 5894 5893 5892 5892 5891 5890 5890 5889 5889 5888 5887 5886 5885 5885 5885 5885 5885
5914 5913 5912 5911 5910 5909 5908 5908 5907 5906 5905 5905 5903 5902 5901 5901 5900 5899 5898 5896 5895 5894 5894 5893 5893 5893 5892 5891 5890 5889 5888 5888 5887 5886 5886 5886 5885 5885 5884 5883 5883 5883 5883
5911 5910 5909 5907 5906 5905 5904 5903 5903 5903 5902 5901 5900 5899 5897 5896 5896 5895 5894 5893 5891 5890 5890 5889 5889 5888 5888 5888 5887 5886 5885 5884 5883 5883 5883 5883 5883 5882 5882 5881 5880 5880 5880
5908 5906 5905 5903 5902 5901 5900 5899 5898 5898 5897 5896 5895 5894 5892 5891 5890 5889 5888 5887 5886 5885 5884 5884 5884 5883 5883 5883 5882 5881 5880 5879 5878 5878 5878 5878 5879 5879 5878 5877 5877 5877 5877
5902 5901 5900 5898 5897 5896 5894 5893 5892 5891 5890 5889 5888 5888 5886 5885 5884 5883 5882 5881 5879 5878 5877 5876 5876 5876 5876 5875 5875 5874 5874 5873 5873 5873 5873 5873 5874 5874 5873 5873 5872 5872 5872
5896 5894 5892 5891 5889 5888 5886 5885 5884 5883 5883 5882 5881 5880 5878 5877 5876 5875 5874 5873 5871 5870 5869 5868 5867 5867 5867 5867 5867 5867 5867 5867 5867 5867 5867 5867 5867 5868 5868 5868 5867 5867 5867
5890 5888 5885 5883 5880 5879 5877 5877 5876 5875 5875 5874 5872 5871 5869 5868 5866 5864 5863 5862 5863 5861 5860 5859 5859 5858 5857 5857 5857 5858 5858 5859 5860 5860 5860 5860 5860 5860 5861 5861 5861 5861 5861
5884 5882 5879 5876 5873 5871 5869 5868 5867 5866 5865 5864 5863 5861 5860 5858 5856 5854 5852 5852 5852 5853 5852 5850 5850 5849 5848 5847 5848 5849 5850 5851 5852 5852 5852 5852 5852 5852 5852 5852 5853 5853 5854
5878 5876 5873 5870 5868 5865 5863 5861 5860 5858 5856 5855 5853 5852 5851 5850 5848 5847 5845 5845 5844 5844 5844 5844 5842 5841 5839 5838 5839 5840 5841 5842 5843 5844 5844 5844 5843 5843 5843 5843 5844 5845 5845
5871 5868 5865 5863 5861 5858 5856 5854 5852 5851 5849 5847 5845 5844 5843 5842 5840 5839 5838 5837 5836 5835 5835 5835 5834 5833 5831 5831 5830 5830 5832 5833 5833 5834 5835 5835 5834 5834 5834 5834 5834 5835 5836
5863 5861 5859 5857 5854 5851 5849 5846 5845 5843 5841 5838 5837 5836 5834 5833 5831 5830 5829 5828 5827 5826 5826 5825 5824 5824 5823 5822 5821 5822 5823 5823 5824 5824 5825 5825 5824 5824 5824 5824 5825 5825 5826
5856 5854 5852 5849 5846 5843 5841 5839 5837 5835 5833 5831 5829 5827 5825 5823 5821 5820 5818 5817 5817 5816 5816 5815 5814 5813 5813 5812 5811 5812 5814 5814 5815 5815 5814 5815 5815 5814 5814 5815 5815 5815 5816
5850 5848 5846 5843 5839 5836 5834 5831 5829 5827 5825 5824 5821 5819 5816 5814 5812 5811 5809 5808 5807 5807 5806 5804 5803 5802 5802 5802 5801 5802 5803 5806 5805 5805 5804 5805 5805 5804 5805 5805 5805 5806 5806
5843 5840 5838 5834 5831 5829 5826 5824 5822 5819 5817 5815 5812 5810 5807 5805 5803 5801 5800 5799 5798 5798 5797 5795 5794 5792 5792 5792 5791 5791 5793 5795 5795 5795 5794 5795 5794 5794 5795 5795 5795 5796 5796
5838 5835 5832 5829 5826 5823 5820 5818 5815 5813 5810 5807 5804 5801 5798 5795 5792 5790 5789 5788 5788 5787 5786 5786 5785 5783 5782 5782 5782 5782 5782 5784 5785 5785 5785 5784 5784 5784 5784 5785 5786 5786 5787
5833 5830 5827 5824 5821 5818 5815 5812 5810 5807 5803 5800 5796 5792 5789 5785 5782 5780 5778 5776 5776 5775 5775 5774 5774 5773 5773 5773 5772 5772 5772 5772 5773 5774 5775 5775 5774 5774 5774 5775 5776 5777 5778
5829 5825 5822 5819 5817 5814 5811 5808 5805 5801 5798 5795 5790 5786 5781 5776 5772 5769 5766 5764 5762 5762 5762 5762 5762 5762 5762 5762 5762 5762 5762 5762 5762 5762 5764 5765 5764 5765 5766 5767 5768 5769 5770